Temperature
30 30 30 31 32 32 32 31 31 31 32 32 31 30 30 29 28 27 25 24 22 21 20 20 19 19 18 18 18 18 18 18 18 18 18 18 18 17 17 17 17 16 16 16
30 30 31 32 32 32 32 31 31 31 32 32 31 30 30 29 28 27 25 24 22 21 20 19 19 19 18 18 18 18 18 18 18 18 18 18 18 17 17 17 17 16 16 16
29 31 32 32 32 31 31 31 31 31 32 32 31 29 28 28 28 27 26 24 23 21 20 19 18 18 18 18 18 18 18 18 18 18 18 17 17 17 17 17 17 16 16 16
31 32 32 32 32 31 31 32 31 31 30 30 30 27 26 27 27 27 26 24 23 22 21 19 19 18 18 18 18 18 18 18 18 18 18 18 17 17 17 17 17 16 16 15
31 32 32 31 32 32 31 32 31 30 29 27 26 26 26 27 27 27 26 25 24 23 21 20 19 19 18 18 18 18 18 18 18 18 18 17 17 17 17 17 17 16 16 15
31 33 33 32 33 33 32 32 30 28 26 23 23 24 26 27 28 27 27 26 24 23 22 21 20 19 19 19 18 18 18 18 18 18 18 18 17 17 17 17 17 16 16 16
30 31 33 33 32 32 32 30 28 25 23 23 24 24 27 29 30 29 27 26 25 24 23 22 21 20 19 19 18 18 18 18 18 18 18 18 17 17 17 17 17 16 16 16
29 29 31 32 31 31 31 30 28 26 25 26 26 25 27 30 30 29 28 26 25 24 23 22 21 20 20 19 19 19 18 18 18 18 18 18 18 17 17 17 17 17 17 16
30 30 32 33 33 32 31 30 31 28 28 27 26 25 26 28 29 29 28 27 26 25 24 23 22 21 20 20 19 19 19 18 18 18 18 18 18 17 17 17 17 17 17 16
30 30 31 32 32 32 32 31 30 29 27 26 25 24 23 24 27 28 28 27 26 25 24 23 22 22 21 20 20 19 19 19 18 18 18 18 18 18 17 17 17 17 17 16
31 30 31 31 30 30 30 30 29 29 29 26 25 24 25 25 27 28 29 28 27 26 25 24 23 22 22 21 20 19 19 19 18 18 18 18 18 18 18 17 17 17 17 17
31 31 30 30 31 31 30 29 29 27 27 28 27 25 27 26 28 29 29 28 27 26 26 25 24 23 22 21 20 20 19 19 19 18 18 18 18 18 18 17 17 17 17 17
30 29 28 28 28 27 27 28 28 28 28 27 26 25 27 27 27 28 28 27 26 26 26 25 24 23 22 22 21 20 19 19 19 18 18 18 18 18 18 18 17 17 17 17
29 28 28 27 26 24 24 25 26 26 26 27 26 26 25 25 26 26 27 26 26 25 25 25 24 23 23 22 21 21 20 19 19 18 18 18 18 18 18 18 17 17 17 17
28 28 28 29 28 26 25 25 26 26 27 27 27 26 25 25 25 25 26 26 25 25 25 24 24 23 23 22 22 21 20 20 20 19 19 18 18 18 18 18 17 17 17 17
27 27 28 28 28 28 27 27 27 27 28 28 28 27 26 25 24 25 25 25 25 25 24 24 24 23 23 22 22 21 21 20 20 20 19 19 18 18 18 17 17 17 17 17
26 26 27 27 27 27 26 27 27 28 29 29 27 27 26 25 24 23 24 24 24 24 23 23 23 23 22 22 22 21 21 21 20 20 19 19 19 18 18 17 17 17 17 17
22 23 25 26 26 24 27 28 27 27 28 28 27 27 26 25 23 23 22 22 22 22 21 21 21 21 21 21 21 21 21 20 20 20 19 19 18 18 18 17 17 17 17 17
21 21 24 25 25 25 25 25 25 25 26 27 27 26 25 24 23 22 21 21 20 20 20 20 20 20 20 20 21 21 20 20 19 19 18 18 18 18 17 17 17 16 16 16
22 22 23 25 24 23 23 23 24 24 23 25 25 25 25 25 23 20 20 19 19 19 19 19 19 19 19 19 20 20 19 19 19 18 18 18 17 17 17 17 16 16 16 15
22 22 23 24 24 23 23 23 23 22 22 24 24 24 23 22 21 19 18 18 18 17 17 17 18 18 17 18 18 18 18 18 18 17 17 17 17 16 16 16 15 15 15 15
19 21 22 23 23 21 22 22 22 21 23 23 23 22 21 20 19 18 17 17 16 16 16 16 16 16 16 17 17 17 16 16 16 16 16 16 16 15 15 15 15 15 15 14
17 18 19 20 20 20 21 21 21 22 22 22 22 22 20 19 18 17 17 16 15 15 15 15 15 15 15 15 15 15 15 15 15 15 15 15 15 15 15 14 14 14 14 14
18 18 18 18 19 20 20 21 21 21 21 22 21 21 20 19 18 17 16 15 15 15 15 14 14 14 14 14 14 14 14 14 14 14 14 14 14 14 14 14 14 13 13 13
19 19 19 19 20 20 20 20 21 20 21 20 20 19 18 17 16 16 15 15 14 14 14 14 13 13 13 13 13 13 13 13 13 13 13 13 13 13 13 13 13 13 13 13
20 20 19 19 20 20 20 20 20 20 20 19 18 18 17 17 16 15 15 14 14 14 13 13 13 12 12 12 12 12 12 12 12 12 12 13 13 13 13 13 13 13 13 13
Wind_Speed
16 15 15 14 12 11 13 14 14 11 7 8 9 6 5 8 8 8 9 11 12 12 12 10 10 11 12 12 11 11 10 9 8 6 6 6 5 5 5 6 8 7 6 4
17 18 18 17 12 12 14 15 14 11 9 10 11 7 3 6 7 8 10 12 12 13 12 11 11 11 11 11 11 11 11 11 9 6 5 5 5 5 5 5 7 7 6 6
21 18 16 14 13 13 14 13 13 14 14 14 12 5 3 6 7 8 10 12 13 15 15 14 13 12 12 13 13 12 11 11 9 9 6 5 5 3 5 6 5 5 6 5
20 20 18 14 14 15 14 13 13 15 15 12 9 3 4 6 7 9 10 12 13 14 16 15 15 15 15 14 13 12 12 11 10 10 9 9 7 6 6 6 6 6 6 6
20 19 18 17 15 14 15 13 14 16 14 12 9 6 5 7 7 10 11 12 13 14 15 16 16 15 15 15 14 12 12 11 11 10 9 9 7 6 6 6 8 7 6 5
22 20 17 16 15 14 14 14 14 10 6 5 8 7 3 5 7 10 12 12 13 14 15 15 16 15 14 15 14 14 13 12 11 11 10 9 8 7 7 7 8 6 6 5
23 22 19 15 15 15 13 13 9 6 2 5 9 6 2 5 6 10 13 13 14 14 15 15 15 16 15 16 16 15 15 13 12 11 10 9 8 7 7 7 8 7 6 6
20 17 18 19 19 15 13 13 9 9 9 6 2 2 0 6 8 9 13 14 14 15 14 15 15 15 15 16 15 15 15 14 13 12 10 9 8 6 6 7 6 7 4 6
18 17 15 16 17 16 14 12 11 10 13 10 2 1 2 5 6 8 12 14 14 14 15 15 15 15 15 15 15 16 15 14 13 13 11 9 9 8 7 8 6 5 4 5
22 18 14 11 12 14 14 11 9 8 8 8 3 2 1 3 4 5 10 12 13 14 15 15 15 15 14 15 14 14 14 13 12 12 12 12 10 8 7 7 7 5 6 5
23 20 17 13 11 12 12 12 9 9 8 7 5 1 5 8 7 7 9 11 12 13 14 15 14 14 14 14 14 14 14 13 13 13 12 11 11 10 8 7 7 6 6 6
17 16 16 14 10 9 10 10 10 8 9 9 7 0 3 3 2 6 9 10 9 11 13 14 15 14 14 14 14 14 14 14 13 12 11 10 10 10 9 9 8 8 7 7
10 11 14 13 8 4 6 9 10 9 9 9 7 2 2 2 3 4 7 8 9 8 10 12 13 13 13 13 13 14 14 15 14 13 11 10 10 10 10 9 9 9 8 8
8 10 13 14 6 4 4 11 12 10 9 9 6 2 3 1 2 4 4 6 8 7 7 9 11 11 11 11 11 12 14 14 14 13 13 12 11 10 10 9 9 9 9 9
10 13 14 13 8 10 10 12 14 14 12 10 6 4 4 4 3 2 3 5 6 7 7 7 8 10 10 10 10 11 11 12 12 13 13 12 11 10 9 9 9 9 9 11
11 12 13 13 11 10 10 13 14 14 13 12 8 3 8 9 6 3 4 3 3 4 5 6 6 8 10 11 11 10 10 10 10 11 12 11 11 11 10 10 9 9 9 9
8 10 13 12 10 9 12 11 10 11 9 8 5 4 10 10 7 6 5 4 4 4 4 3 2 4 6 8 10 11 10 10 10 11 11 11 11 12 11 11 10 10 10 10
7 8 8 11 8 12 6 3 4 6 4 1 4 7 9 11 10 8 8 7 7 7 6 4 3 4 3 4 7 7 8 8 8 9 9 8 9 10 10 10 10 10 8 8
7 7 8 9 10 9 3 3 2 4 3 5 7 9 11 12 12 11 10 10 9 9 8 7 6 5 5 4 3 4 4 5 5 5 5 5 6 6 6 7 7 7 7 8
10 9 10 9 8 6 1 2 3 2 1 5 7 7 8 7 7 7 9 11 11 10 10 9 10 11 10 7 6 6 5 4 4 3 3 3 3 3 5 5 5 5 5 6
9 10 12 11 8 1 3 0 2 2 2 5 9 9 8 9 9 11 11 11 11 12 12 13 13 13 12 11 10 9 8 6 5 5 4 4 3 3 3 3 3 3 4 5
3 3 6 8 7 1 3 2 2 4 3 5 9 12 14 15 15 14 13 12 12 12 13 13 12 12 11 12 11 11 9 7 6 6 5 4 3 1 2 2 2 2 2 3
2 3 2 2 3 5 6 6 4 3 5 6 9 13 15 15 15 14 13 12 12 12 12 11 12 12 12 12 11 11 8 6 6 5 5 4 3 2 2 1 1 1 2 3
1 1 2 2 3 4 6 8 7 6 6 8 11 13 14 15 14 13 12 11 11 11 11 10 11 11 11 11 11 9 8 7 7 6 5 3 3 2 2 2 1 0 1 1
1 2 3 4 3 4 7 7 9 8 10 12 13 14 14 15 14 13 12 11 10 10 10 10 10 10 10 10 10 9 8 7 6 5 4 3 2 2 1 0 1 1 0 0
4 4 3 3 3 4 5 6 8 9 12 13 14 14 14 14 14 14 12 10 10 10 9 10 10 10 9 9 8 8 8 7 6 5 4 4 3 2 2 1 1 2 3 3
Wind_Direction
235 239 249 259 267 286 300 302 307 314 300 294 293 277 206 183 187 173 172 167 163 166 171 164 161 162 156 152 152 148 147 149 151 152 153 148 153 148 135 136 142 147 140 133
244 241 250 263 278 285 288 296 303 307 306 289 287 276 200 171 183 175 172 168 169 166 168 168 167 167 162 157 155 153 156 157 161 157 154 158 149 155 144 134 145 157 154 159
239 249 247 256 271 278 284 294 304 309 303 288 284 274 169 169 173 171 172 169 173 170 168 173 171 169 171 167 166 165 165 161 167 158 156 152 136 152 139 143 159 164 164 164
246 255 260 261 265 274 283 295 305 305 301 300 300 285 168 184 178 173 173 172 174 172 169 174 174 177 177 176 172 165 165 164 168 165 168 164 169 178 166 163 159 166 172 165
247 250 255 259 262 273 286 297 297 300 306 309 326 309 181 184 187 176 173 175 175 175 172 174 176 177 178 178 175 168 167 168 170 176 173 177 182 178 163 159 151 167 170 178
256 258 257 259 266 269 279 285 288 302 324 311 281 273 214 172 179 167 165 169 171 172 172 173 172 174 179 176 173 170 170 172 174 180 178 189 190 177 163 161 156 179 170 182
250 255 259 261 262 264 268 277 289 306 296 252 251 261 198 152 142 150 158 163 168 169 171 171 171 173 174 177 175 172 171 174 176 181 183 188 189 177 167 172 169 190 180 179
245 246 245 244 247 255 258 267 276 293 294 294 260 287 252 114 113 128 146 154 163 167 168 171 172 172 175 178 175 171 172 175 179 183 183 183 182 184 182 191 187 195 203 174
249 252 246 240 235 243 256 263 276 281 287 294 285 257 70 52 105 131 143 153 163 168 170 172 173 175 176 177 176 174 174 176 181 182 179 180 185 198 191 178 203 192 183 154
246 259 260 246 237 234 246 264 280 286 295 300 315 0 16 277 185 154 151 157 163 168 172 172 174 178 179 177 173 173 175 178 181 181 183 187 190 198 193 186 194 195 173 161
235 247 255 249 234 243 244 248 258 275 282 297 301 300 177 217 202 172 158 155 163 169 172 173 174 177 177 177 174 173 172 178 183 186 191 189 187 194 195 197 189 186 173 166
237 240 248 247 245 257 260 264 258 256 269 278 289 189 148 228 225 157 143 145 157 169 170 171 173 174 177 179 178 177 178 181 186 187 187 191 186 190 195 197 191 183 181 182
248 240 242 244 240 278 279 277 284 271 265 268 276 194 116 4 348 98 127 136 144 164 168 167 167 170 176 178 178 179 181 185 187 186 185 187 188 193 197 197 190 185 185 191
264 247 247 250 224 181 261 284 286 281 265 266 272 228 162 168 42 58 98 127 137 154 158 162 163 168 172 176 177 178 183 185 186 186 187 189 192 194 199 200 195 191 190 196
248 242 242 250 216 193 206 226 245 253 259 263 251 231 174 139 117 133 127 122 141 154 158 154 164 168 170 173 175 179 183 183 185 184 188 191 190 191 194 196 197 195 194 202
240 246 244 249 240 229 232 222 231 243 250 254 250 195 128 118 114 107 91 110 149 147 162 164 164 166 172 174 178 181 183 183 179 182 189 190 187 190 197 198 199 199 200 205
248 240 242 247 253 259 246 238 242 247 251 261 258 135 126 118 107 91 79 70 55 66 87 90 129 150 164 173 175 178 182 181 181 185 191 190 189 193 197 201 200 205 204 206
269 273 248 242 234 248 253 315 309 287 266 181 116 107 111 108 100 85 72 64 53 43 45 58 81 87 125 168 173 173 180 182 184 187 191 191 192 197 197 200 203 205 205 207
237 243 248 247 243 251 274 333 341 332 11 48 102 108 110 114 101 77 65 66 58 47 41 43 52 77 76 72 116 134 143 154 162 178 189 187 185 190 194 208 211 205 206 209
219 219 233 235 240 251 177 2 11 7 50 58 86 102 120 130 113 92 74 69 62 55 52 54 55 54 57 57 72 96 98 103 117 132 137 131 141 173 187 200 211 205 206 215
219 215 226 234 236 176 79 181 197 212 133 74 86 86 91 90 95 103 90 79 71 64 60 58 58 55 48 48 62 68 65 60 62 72 89 102 124 147 165 180 187 202 211 217
309 254 234 242 238 134 43 56 69 96 98 89 95 99 99 101 101 99 92 83 74 68 64 62 62 57 48 50 59 63 53 43 49 53 52 63 78 112 153 148 167 184 218 235
359 333 317 20 71 79 68 85 103 118 107 102 104 108 113 111 108 103 96 89 82 77 72 68 67 61 51 46 50 54 43 39 47 53 48 40 51 54 43 104 177 199 218 237
191 293 73 70 54 68 76 71 65 74 91 96 101 107 111 110 106 101 97 93 86 79 76 74 72 67 57 50 49 46 39 37 48 50 45 36 32 39 30 12 18 358 291 272
118 142 123 126 107 89 60 62 77 84 92 93 95 99 104 104 101 99 93 88 84 79 75 73 74 72 67 60 52 44 37 32 30 32 30 23 32 26 24 347 318 289 21 254
37 43 67 85 64 84 77 75 87 94 93 96 99 97 96 98 98 94 90 85 82 80 77 74 72 71 68 64 57 47 37 31 24 18 8 350 348 8 317 269 244 214 218 207
Height
1483 1484 1481 1473 1467 1466 1466 1466 1466 1461 1453 1456 1458 1459 1461 1464 1469 1473 1479 1483 1488 1492 1496 1500 1503 1506 1510 1514 1518 1522 1526 1531 1535 1538 1541 1544 1547 1550 1552 1553 1554 1555 1556 1557
1480 1478 1470 1465 1462 1463 1464 1467 1465 1458 1452 1454 1455 1456 1456 1461 1466 1471 1476 1481 1486 1491 1495 1498 1501 1505 1508 1512 1515 1520 1525 1529 1533 1537 1540 1544 1547 1549 1551 1552 1553 1555 1556 1556
1477 1468 1462 1462 1463 1464 1464 1465 1463 1461 1453 1448 1454 1461 1461 1463 1465 1469 1474 1479 1484 1488 1493 1497 1500 1504 1507 1511 1515 1519 1524 1528 1532 1536 1539 1543 1546 1548 1550 1552 1553 1554 1555 1556
1467 1461 1459 1460 1462 1462 1466 1455 1455 1457 1461 1462 1459 1476 1470 1464 1465 1467 1471 1476 1481 1486 1490 1494 1498 1502 1505 1509 1513 1518 1522 1526 1530 1534 1538 1541 1543 1546 1549 1550 1551 1553 1554 1555
1464 1458 1458 1460 1458 1456 1457 1452 1454 1458 1465 1471 1472 1479 1473 1462 1465 1464 1467 1473 1478 1483 1488 1492 1496 1500 1504 1508 1512 1516 1521 1524 1528 1533 1536 1539 1543 1545 1547 1549 1550 1551 1552 1554
1456 1452 1451 1452 1450 1450 1450 1452 1455 1461 1474 1496 1488 1487 1474 1460 1457 1458 1463 1469 1475 1481 1486 1491 1495 1499 1503 1507 1511 1515 1519 1523 1527 1531 1534 1538 1541 1544 1546 1547 1548 1550 1551 1552
1461 1453 1448 1448 1452 1450 1451 1462 1477 1489 1499 1498 1478 1481 1468 1450 1447 1452 1459 1466 1472 1478 1484 1489 1493 1497 1501 1505 1509 1513 1517 1520 1524 1528 1532 1536 1539 1542 1544 1546 1547 1548 1550 1550
1464 1462 1448 1446 1449 1453 1452 1458 1478 1494 1491 1480 1473 1478 1462 1444 1447 1451 1457 1463 1470 1476 1482 1487 1491 1495 1499 1504 1508 1511 1514 1518 1522 1526 1530 1534 1537 1539 1542 1544 1546 1547 1549 1549
1457 1456 1439 1438 1439 1444 1451 1452 1449 1463 1468 1474 1476 1471 1459 1451 1450 1453 1457 1463 1468 1474 1479 1485 1489 1494 1498 1502 1505 1509 1512 1516 1520 1524 1528 1531 1534 1537 1540 1542 1544 1546 1547 1548
1445 1452 1439 1436 1437 1438 1441 1444 1451 1462 1478 1484 1479 1481 1481 1467 1457 1455 1456 1461 1466 1471 1477 1482 1487 1491 1495 1500 1503 1507 1510 1514 1517 1521 1525 1528 1531 1535 1537 1539 1541 1543 1545 1546
1435 1446 1443 1438 1442 1447 1444 1447 1451 1454 1457 1476 1487 1485 1463 1462 1454 1453 1454 1459 1464 1469 1474 1479 1484 1489 1493 1498 1501 1504 1508 1511 1515 1518 1522 1526 1528 1531 1534 1536 1538 1540 1542 1543
1428 1436 1444 1440 1434 1435 1441 1446 1450 1465 1465 1461 1470 1476 1453 1454 1451 1450 1453 1458 1462 1466 1471 1476 1481 1486 1491 1495 1498 1502 1505 1508 1512 1515 1519 1522 1525 1527 1530 1532 1534 1536 1538 1539
1429 1436 1450 1452 1449 1448 1449 1447 1448 1451 1454 1459 1469 1472 1452 1452 1452 1450 1453 1457 1462 1465 1469 1473 1478 1483 1487 1491 1495 1499 1502 1505 1509 1512 1515 1518 1521 1523 1525 1528 1530 1532 1534 1536
1431 1436 1444 1454 1454 1458 1461 1456 1452 1456 1460 1459 1461 1462 1456 1455 1454 1455 1456 1458 1461 1465 1468 1471 1476 1480 1484 1488 1492 1496 1499 1502 1506 1509 1512 1514 1517 1519 1522 1524 1526 1528 1530 1532
1431 1436 1435 1434 1436 1445 1451 1454 1452 1453 1451 1454 1453 1454 1454 1454 1456 1457 1458 1459 1461 1464 1467 1470 1474 1477 1481 1485 1489 1493 1496 1499 1502 1505 1507 1510 1512 1515 1518 1520 1522 1524 1526 1528
1430 1433 1433 1435 1433 1436 1442 1441 1442 1443 1442 1442 1442 1447 1448 1451 1456 1458 1458 1460 1462 1463 1466 1468 1471 1474 1478 1481 1485 1489 1492 1495 1498 1501 1503 1506 1509 1511 1513 1516 1518 1519 1521 1523
1433 1435 1438 1441 1434 1438 1446 1437 1436 1436 1433 1435 1443 1444 1446 1452 1457 1460 1460 1461 1462 1464 1466 1467 1470 1472 1474 1477 1481 1484 1488 1491 1494 1496 1499 1502 1504 1506 1509 1511 1513 1515 1517 1519
1441 1440 1436 1438 1444 1459 1438 1428 1430 1432 1432 1432 1437 1441 1445 1452 1457 1461 1462 1463 1465 1466 1467 1468 1470 1471 1473 1476 1478 1481 1484 1486 1488 1491 1494 1497 1500 1502 1505 1507 1509 1511 1513 1514
1439 1443 1442 1441 1445 1443 1437 1434 1435 1441 1439 1436 1438 1443 1448 1454 1458 1463 1465 1466 1468 1469 1469 1470 1470 1470 1472 1474 1476 1479 1482 1484 1486 1488 1490 1493 1496 1498 1501 1503 1504 1506 1509 1510
1432 1435 1441 1440 1449 1454 1446 1440 1437 1444 1450 1441 1441 1445 1449 1452 1459 1469 1469 1470 1470 1471 1471 1471 1470 1470 1471 1472 1475 1477 1480 1483 1484 1486 1488 1490 1492 1494 1496 1498 1500 1501 1504 1505
1437 1436 1437 1439 1444 1443 1442 1440 1440 1455 1457 1446 1445 1449 1452 1456 1462 1469 1471 1472 1473 1474 1473 1473 1472 1472 1473 1473 1474 1477 1480 1482 1484 1486 1487 1488 1489 1491 1494 1495 1497 1498 1500 1502
1446 1442 1441 1438 1445 1454 1443 1442 1447 1452 1448 1447 1449 1452 1456 1461 1466 1470 1472 1474 1475 1476 1476 1476 1475 1475 1476 1476 1476 1478 1480 1482 1483 1485 1486 1487 1488 1490 1491 1493 1494 1496 1497 1498
1450 1450 1446 1446 1450 1448 1445 1447 1448 1449 1450 1451 1452 1455 1459 1464 1468 1472 1475 1477 1478 1479 1479 1479 1479 1479 1480 1480 1480 1481 1483 1484 1485 1485 1486 1487 1487 1489 1490 1491 1491 1492 1494 1495
1449 1447 1446 1449 1448 1447 1447 1447 1449 1451 1453 1454 1456 1460 1463 1467 1471 1474 1477 1480 1481 1482 1483 1483 1484 1484 1484 1484 1485 1485 1486 1486 1486 1486 1487 1487 1488 1489 1490 1490 1490 1491 1492 1492
1445 1444 1446 1450 1448 1448 1449 1450 1451 1453 1455 1458 1461 1464 1467 1470 1474 1477 1480 1483 1484 1485 1487 1487 1487 1487 1488 1488 1488 1488 1488 1488 1488 1488 1488 1489 1489 1489 1489 1489 1490 1490 1490 1491
1445 1446 1448 1451 1450 1450 1453 1453 1455 1457 1460 1463 1466 1469 1471 1474 1477 1480 1483 1486 1488 1489 1490 1490 1491 1491 1492 1492 1491 1491 1491 1490 1490 1490 1490 1491 1491 1490 1490 1489 1489 1488 1488 1488